[[{"header":{"parameterUnit":"m.s-1","parameterCategory":1,"la1":30.2991,"la2":30.254,"lo1":-89.0895,"lo2":-89.0444,"dy":0.0017,"dx":0.0017,"nx":28,"ny":28,"refTime":"2025-03-15T03:00:00:Z","depth":0,"parameterNumber":2,"parameterNumberName":"U-component_of_WINDS"},"data":[0,0,0,0,0,0,0,0,0,0,0,0,0,0,0,0,0,0,0,0,0,0,0,0,0,0,0,0,0,0,0,0,0,0,0,0,0,0,0,0,0,0,0,0,0,0,0,0,0,0,0,0,0,0,0,0,0,0,6.5241,6.5243,0,6.5369,6.5371,6.5372,6.5315,6.5312,6.5309,6.5306,6.5438,6.5444,6.545,0,0,0,0,0,0,0,0,0,0,0,0,0,6.495,6.4956,6.5241,6.5243,6.5244,6.5369,6.5371,6.5373,6.5315,6.5312,6.5308,6.5304,6.5435,6.5443,6.5451,0,0,0,0,0,0,0,0,0,0,0,0,0,6.5077,6.4958,6.5241,6.5231,6.5231,6.5369,6.5371,6.5373,6.5316,6.5311,6.5307,6.5302,6.5433,6.5442,6.5452,6.5607,0,0,6.5482,6.5486,0,0,0,0,0,0,0,0,6.507,6.5088,6.5231,6.5232,6.5232,6.5321,6.5317,6.5451,6.5317,6.5284,6.5305,6.53,6.5403,6.5415,6.5449,6.5613,6.5619,6.5482,6.5488,6.5493,6.5495,0,0,0,0,0,0,0,6.5061,6.5082,6.5292,6.5233,6.5234,6.5221,6.5234,6.5342,6.5369,6.5287,6.5283,6.5299,6.5402,6.544,6.5452,6.5621,6.5482,6.5491,6.5497,6.5501,6.5923,6.5928,0,0,0,0,0,0,6.5052,6.5075,6.5288,6.5296,6.5138,6.523,6.5244,6.5298,6.5367,6.5373,6.5303,6.5295,6.5426,6.5441,6.5456,6.5645,6.5492,6.5502,6.5507,6.5917,6.5924,6.593,0,0,0,0,0,0,6.5046,6.5072,6.5283,6.5185,6.521,6.524,6.53,6.5303,6.534,6.5379,6.5384,6.5336,6.5423,6.5443,6.5571,6.5649,6.5506,6.5515,6.5911,6.5919,6.5927,6.6023,0,0,0,0,0,0,6.5038,6.507,6.5128,6.5186,6.5216,6.5394,6.5305,6.5308,6.5357,6.5349,6.5412,6.5418,6.542,6.5557,6.5581,6.566,6.5522,6.5904,6.5915,6.5924,6.6013,6.6033,6.6051,0,0,0,0,0,6.5028,6.515,6.5132,6.5158,6.5289,6.5399,6.5416,6.5416,6.5363,6.5423,6.5449,6.5416,6.5636,6.557,6.5597,6.568,6.5899,6.5912,6.5924,6.6004,6.6029,6.605,0,0,0,0,0,0,6.51,6.5157,6.5138,6.5281,6.5336,6.5389,6.5464,6.5442,6.5513,6.5502,6.55,6.5515,6.5648,6.5676,6.5602,6.5836,6.576,6.5778,6.5812,6.5836,6.5855,6.5846,6.553,0,0,0,0,0,6.5132,6.5216,6.5261,6.5384,6.5412,6.5434,6.5482,6.5477,6.5534,6.5557,6.5591,6.5648,6.573,6.5785,6.5862,6.6016,6.6031,6.6087,6.6106,6.6121,6.6137,6.6225,6.6251,6.597,6.5969,6.5969,0,0,6.52,6.5242,6.5295,6.54,6.5441,6.553,6.5454,6.5549,6.5615,6.5571,6.5695,6.5723,6.5786,6.5929,6.5994,6.5957,6.6218,6.6137,6.6149,6.6157,6.624,6.6267,6.629,6.5978,6.5976,6.5975,0,0,6.537,6.5409,6.5517,6.5561,6.5625,6.5639,6.5665,6.5723,6.574,6.5864,6.5834,6.5913,6.6054,6.6101,6.6144,6.6335,6.6308,6.636,6.646,6.6545,6.6567,6.6587,6.6658,6.6683,6.6376,6.6376,6.6376,0,6.5446,6.5577,6.5575,6.5675,6.5723,6.5688,6.5798,6.5841,6.5928,6.5963,6.592,6.6099,6.6138,6.6294,6.6341,6.6375,6.6407,6.6354,6.6564,6.6584,6.6602,6.667,6.6696,6.6382,6.6382,6.6381,6.638,0,6.567,6.5762,6.5841,6.5927,6.5984,6.6089,6.6104,6.6162,6.6154,6.6173,6.6302,6.6349,6.6437,6.6473,6.6465,6.6629,6.6604,6.6563,6.6487,6.6635,6.6699,6.6725,6.6391,6.6389,6.6387,6.6385,0,0,6.5888,6.5973,6.6002,6.6042,6.6112,6.6184,6.6288,6.6374,6.6426,6.6487,6.6576,6.6698,6.6661,6.671,6.6707,6.6781,6.6934,6.6731,6.6733,6.677,6.7121,6.7153,6.7183,6.6916,6.6921,6.6925,6.7116,0,6.6065,6.6247,6.6249,6.6417,6.6504,6.6473,6.6564,6.6618,6.6639,6.6716,6.6739,6.6827,6.677,6.68,6.6872,6.69,6.7005,6.6886,6.7001,6.7005,6.6988,6.7216,6.725,6.7428,6.7141,6.7145,6.7148,0,6.6295,6.6366,6.6543,6.6604,6.664,6.6722,6.6803,6.6876,6.6938,6.6948,6.7004,6.6991,6.7099,6.7019,6.717,6.7089,6.7136,6.7158,6.7165,6.7177,6.7087,6.7237,6.7484,6.7512,6.7187,6.7184,6.7181,0,6.644,6.6579,6.6704,6.6739,6.6812,6.6871,6.6904,6.696,6.7013,6.7084,6.7119,6.7202,6.7248,6.7313,6.7324,6.7264,6.7477,6.7396,6.749,6.749,6.7537,6.7535,6.7799,6.7564,6.7564,6.7563,6.7563,0,6.6639,6.6749,6.6771,6.6848,6.6971,6.6974,6.7096,6.7125,6.7176,6.7259,6.7237,6.7316,6.7324,6.7406,6.7414,6.754,6.756,6.7573,6.7574,6.7576,6.7575,6.7609,6.7597,6.757,6.7569,6.7567,6.7566,0,6.6822,6.684,6.6975,6.7034,6.7051,6.714,6.7191,6.7266,6.7285,6.7391,6.7416,6.7447,6.7543,6.7559,6.7671,6.7678,6.7828,6.7816,6.7808,6.7807,6.7901,6.7893,6.8198,6.8239,6.7975,6.7978,6.798,0,6.6949,6.7034,6.7102,6.7156,6.7193,6.728,6.7335,6.7341,6.7399,6.7477,6.7543,6.7636,6.7711,6.7866,6.7899,6.7986,6.7977,6.8078,6.799,6.799,6.7982,6.7978,6.7987,6.8095,6.8098,6.81,6.8102,0,6.7173,6.7179,6.7258,6.7342,6.7408,6.7474,6.7537,6.7583,6.7597,6.7664,6.7762,6.782,6.7936,6.803,6.8117,6.8152,6.8131,6.8129,6.8156,6.816,6.8153,6.8161,6.7857,6.8123,6.8121,6.8119,6.8118,6.8117,6.7334,6.7409,6.747,6.756,6.7608,6.7668,6.7742,6.7771,6.7853,6.7948,6.7946,6.8054,6.8116,6.8231,6.8272,6.8357,6.8325,6.8363,6.8373,6.8383,6.8394,6.8138,6.8373,6.8372,6.8372,6.8371,6.8371,0,6.756,6.7598,6.7681,6.777,6.7842,6.7815,6.7884,6.7946,6.8041,6.81,6.8175,6.8289,6.8381,6.8422,6.8513,6.8574,6.8567,6.8598,6.8594,6.8604,6.8416,6.8385,6.8602,6.8602,6.8602,6.8602,6.8602,6.8602,6.7686,6.7813,6.7826,6.7977,6.8014,6.812,6.8162,6.8218,6.8266,6.8394,6.847,6.8496,6.8549,6.8644,6.8728,6.8738,6.8774,6.881,6.8816,6.864,6.8616,6.8594,6.8565,6.8817,6.8817,6.8997,6.8998,6.8999]},{"header":{"parameterUnit":"m.s-1","parameterCategory":1,"la1":30.2991,"la2":30.254,"lo1":-89.0895,"lo2":-89.0444,"dy":0.0017,"dx":0.0017,"nx":28,"ny":28,"refTime":"2025-03-15T03:00:00:Z","depth":0,"parameterNumber":3,"parameterNumberName":"V-component_of_WINDS"},"data":[0,0,0,0,0,0,0,0,0,0,0,0,0,0,0,0,0,0,0,0,0,0,0,0,0,0,0,0,0,0,0,0,0,0,0,0,0,0,0,0,0,0,0,0,0,0,0,0,0,0,0,0,0,0,0,0,0,0,-1.3113,-1.3113,0,-1.3049,-1.3048,-1.3047,-1.3025,-1.3025,-1.3025,-1.3026,-1.2955,-1.2953,-1.2951,0,0,0,0,0,0,0,0,0,0,0,0,0,-1.3215,-1.3213,-1.3113,-1.3113,-1.3112,-1.3049,-1.3048,-1.3047,-1.3025,-1.3025,-1.3025,-1.3026,-1.2956,-1.2953,-1.2951,0,0,0,0,0,0,0,0,0,0,0,0,0,-1.3162,-1.3212,-1.3114,-1.3093,-1.3091,-1.3049,-1.3048,-1.3047,-1.3025,-1.3025,-1.3026,-1.3026,-1.2957,-1.2954,-1.2951,-1.2923,0,0,-1.2941,-1.2939,0,0,0,0,0,0,0,0,-1.3165,-1.3159,-1.3097,-1.3095,-1.3092,-1.3045,-1.3058,-1.3005,-1.3025,-1.305,-1.3026,-1.3026,-1.2985,-1.2979,-1.2966,-1.292,-1.2917,-1.2941,-1.2939,-1.2937,-1.2936,0,0,0,0,0,0,0,-1.3169,-1.3161,-1.3088,-1.3096,-1.3093,-1.3086,-1.3079,-1.3048,-1.3016,-1.3048,-1.3046,-1.3039,-1.2983,-1.2969,-1.2964,-1.2916,-1.2941,-1.2938,-1.2936,-1.2935,-1.2844,-1.2843,0,0,0,0,0,0,-1.3177,-1.3164,-1.309,-1.3086,-1.313,-1.3084,-1.3076,-1.306,-1.3016,-1.301,-1.3038,-1.3038,-1.2974,-1.2968,-1.2962,-1.2927,-1.2937,-1.2934,-1.2932,-1.2844,-1.2844,-1.2843,0,0,0,0,0,0,-1.3179,-1.317,-1.3092,-1.3125,-1.3114,-1.3082,-1.3064,-1.3058,-1.3044,-1.3009,-1.3003,-1.303,-1.2974,-1.2966,-1.2933,-1.2924,-1.2933,-1.293,-1.2845,-1.2844,-1.2843,-1.2857,0,0,0,0,0,0,-1.3182,-1.3171,-1.3161,-1.3125,-1.3113,-1.3066,-1.3063,-1.3057,-1.3039,-1.3038,-1.3,-1.2994,-1.2974,-1.2938,-1.293,-1.292,-1.2927,-1.2845,-1.2844,-1.2844,-1.2857,-1.2856,-1.2856,0,0,0,0,0,-1.3185,-1.3166,-1.3161,-1.3152,-1.31,-1.3065,-1.3058,-1.3038,-1.3039,-1.3028,-1.3005,-1.2995,-1.2927,-1.2935,-1.2926,-1.2914,-1.2846,-1.2845,-1.2844,-1.2857,-1.2856,-1.2856,0,0,0,0,0,0,-1.32,-1.3161,-1.3154,-1.3123,-1.3098,-1.3062,-1.3047,-1.3038,-1.3011,-1.301,-1.2985,-1.2976,-1.2945,-1.2926,-1.2936,-1.2885,-1.2886,-1.2883,-1.2899,-1.2898,-1.2898,-1.2902,-1.2925,0,0,0,0,0,-1.3201,-1.3177,-1.3144,-1.3119,-1.3107,-1.308,-1.3064,-1.305,-1.3023,-1.3012,-1.2987,-1.2959,-1.2932,-1.2914,-1.2886,-1.2854,-1.2845,-1.2842,-1.2842,-1.2841,-1.2839,-1.2821,-1.2819,-1.2839,-1.2839,-1.2839,0,0,-1.32,-1.3175,-1.3162,-1.3122,-1.3101,-1.3076,-1.3071,-1.3045,-1.3026,-1.3007,-1.2975,-1.2956,-1.2923,-1.2891,-1.2875,-1.2874,-1.2831,-1.284,-1.284,-1.2837,-1.2819,-1.2817,-1.2816,-1.2839,-1.2839,-1.2839,0,0,-1.3186,-1.3165,-1.3143,-1.3122,-1.3091,-1.3073,-1.3068,-1.3033,-1.302,-1.2988,-1.2973,-1.295,-1.2903,-1.2881,-1.2864,-1.2843,-1.2832,-1.2834,-1.2832,-1.2814,-1.2813,-1.2811,-1.2804,-1.2801,-1.2832,-1.2832,-1.2832,0,-1.3188,-1.3152,-1.3132,-1.3107,-1.309,-1.3073,-1.305,-1.3031,-1.2992,-1.298,-1.298,-1.2921,-1.2898,-1.286,-1.2855,-1.2842,-1.2834,-1.2838,-1.2815,-1.2813,-1.2811,-1.2804,-1.2801,-1.2833,-1.2833,-1.2832,-1.2832,0,-1.3156,-1.3131,-1.3117,-1.3082,-1.3063,-1.3039,-1.3014,-1.2997,-1.2986,-1.2967,-1.2935,-1.2907,-1.2874,-1.2864,-1.2851,-1.2824,-1.2825,-1.282,-1.282,-1.281,-1.2803,-1.28,-1.2833,-1.2833,-1.2833,-1.2833,0,0,-1.3149,-1.3104,-1.3099,-1.3083,-1.3048,-1.3028,-1.3003,-1.2972,-1.2958,-1.2932,-1.291,-1.2872,-1.2868,-1.2848,-1.2833,-1.2818,-1.2803,-1.2815,-1.2813,-1.2813,-1.2771,-1.2775,-1.2772,-1.2796,-1.2795,-1.2795,-1.2774,0,-1.313,-1.3087,-1.3069,-1.3033,-1.301,-1.2994,-1.2973,-1.2948,-1.2931,-1.2908,-1.2888,-1.2861,-1.2858,-1.2846,-1.283,-1.2808,-1.2794,-1.2809,-1.2774,-1.2774,-1.2783,-1.2768,-1.2771,-1.2753,-1.2771,-1.277,-1.277,0,-1.3102,-1.3078,-1.3041,-1.3009,-1.2999,-1.298,-1.295,-1.2929,-1.2901,-1.2889,-1.2868,-1.2854,-1.2827,-1.2829,-1.2791,-1.2802,-1.2787,-1.2774,-1.2773,-1.2768,-1.2771,-1.2763,-1.2746,-1.2744,-1.2765,-1.2765,-1.2766,0,-1.31,-1.3058,-1.303,-1.3017,-1.298,-1.2967,-1.2951,-1.2923,-1.2906,-1.288,-1.2869,-1.284,-1.2823,-1.2801,-1.2779,-1.2783,-1.2743,-1.2743,-1.2732,-1.2732,-1.2723,-1.2724,-1.2704,-1.2714,-1.2714,-1.2715,-1.2715,0,-1.3081,-1.3059,-1.3029,-1.3012,-1.2987,-1.2966,-1.2941,-1.2923,-1.2899,-1.2878,-1.2862,-1.2842,-1.2815,-1.2792,-1.2774,-1.2746,-1.2738,-1.2727,-1.2723,-1.2729,-1.273,-1.2718,-1.2718,-1.2714,-1.2714,-1.2714,-1.2714,0,-1.3075,-1.3054,-1.3023,-1.2991,-1.2982,-1.2965,-1.2937,-1.2919,-1.2902,-1.2875,-1.2867,-1.2839,-1.2811,-1.2787,-1.2749,-1.2738,-1.2708,-1.2703,-1.2717,-1.2715,-1.2705,-1.2706,-1.2676,-1.2671,-1.2685,-1.2685,-1.2685,0,-1.3063,-1.3046,-1.3013,-1.2998,-1.2983,-1.2959,-1.2942,-1.2921,-1.2903,-1.2871,-1.2857,-1.2828,-1.2803,-1.2759,-1.2734,-1.2705,-1.2699,-1.2691,-1.2694,-1.2701,-1.2699,-1.27,-1.2698,-1.269,-1.269,-1.269,-1.269,0,-1.3046,-1.3037,-1.3014,-1.2987,-1.2968,-1.2945,-1.2922,-1.2911,-1.2885,-1.2867,-1.2838,-1.2819,-1.2782,-1.2753,-1.2721,-1.2703,-1.2692,-1.2689,-1.2685,-1.269,-1.27,-1.2694,-1.2716,-1.269,-1.269,-1.269,-1.269,-1.269,-1.3036,-1.3021,-1.2995,-1.297,-1.2951,-1.293,-1.2912,-1.2893,-1.287,-1.2838,-1.2827,-1.2798,-1.277,-1.2728,-1.271,-1.2686,-1.2685,-1.2678,-1.2677,-1.2676,-1.2676,-1.2704,-1.268,-1.268,-1.268,-1.268,-1.268,0,-1.3018,-1.3001,-1.2978,-1.2948,-1.2928,-1.2921,-1.2895,-1.2879,-1.2854,-1.283,-1.2807,-1.2774,-1.2746,-1.272,-1.2691,-1.2677,-1.2671,-1.267,-1.267,-1.2666,-1.2679,-1.2686,-1.2675,-1.2675,-1.2675,-1.2675,-1.2675,-1.2675,-1.3006,-1.2979,-1.2967,-1.2931,-1.2913,-1.2886,-1.2872,-1.2853,-1.2834,-1.2799,-1.2776,-1.276,-1.2735,-1.2704,-1.2678,-1.2671,-1.266,-1.266,-1.2652,-1.2664,-1.2665,-1.2666,-1.2672,-1.2659,-1.2658,-1.2641,-1.2641,-1.2641]}]]